Location: Artiguedieu
(43.5000°N, 0.5454°E)
Time: 20:16:59
(UTC+00:00)

Explorer 7 - Pass Details

Date: 02 August 2021
Orbit: 484 x 676 km, 50.3° (Epoch: 18 September)

Event Time Altitude Azimuth Distance (km) Brightness Sun altitude
Rises 05:17:16 0° 249° (WSW) 2,547 9.5 4.0°
Reaches altitude 10° 05:19:25 10° 253° (WSW) 1,681 8.7 4.3°
Maximum altitude 05:23:11 63° 335° (NNW) 566 7.0 5.0°
Drops below altitude 10° 05:27:07 10° 57° (ENE) 1,760 11.4 5.6°
Sets 05:29:25 0° 61° (ENE) 2,682 12.5 6.0°
